Location: Cahas Mountain Overlook
(37.0833°N, 80.1000°W)
Time: 20:03:26
(UTC-04:00)

Explorer 7 - Pass Details

Date: 12 February 2026
Orbit: 430 x 541 km, 50.2° (Epoch: 13 March)

Event Time Altitude Azimuth Distance (km) Brightness Sun altitude
Rises 18:40:39 0° 277° (W) 2,485 11.8 -9.2°
Reaches altitude 10° 18:43:20 10° 299° (WNW) 1,636 10.1 -9.8°
Maximum altitude 18:45:51 17° 342° (NNW) 1,280 8.8 -10.3°
Drops below altitude 10° 18:48:26 10° 25° (NNE) 1,688 9.0 -10.8°
Enters shadow 18:49:24 - 34° (NE) 1,973 9.3 -11.0°
Sets 18:51:16 0° 45° (NE) 2,601 - -11.3°
